FW8327 Weather Reports


Display with metric or nautical units.
time (UTC)temp
F
wind
direction
speed
MPH
gust
MPH
rain 1hr
in
rain 24hr
in
rain mn
in
humidity
%
barometer
mb
20260902110507 74 155 0.0 0.0 0.00 0.00 0.00 92 1016.1
20260902110001 74 165 0.0 0.0 0.00 0.00 0.00 92 1016.0
20260902105451 74 159 0.0 0.0 0.00 0.00 0.00 92 1015.9
20260902104951 75 158 0.0 0.0 0.00 0.00 0.00 92 1015.7
20260902104446 75 149 0.0 0.0 0.00 0.00 0.00 92 1015.6
20260902103941 74 250 0.0 0.0 0.00 0.00 0.00 92 1016.0
20260902103436 74 160 0.0 0.0 0.00 0.00 0.00 92 1015.7
20260902102931 74 174 0.0 0.0 0.00 0.00 0.00 93 1015.8
20260902102428 74 160 0.0 0.0 0.00 0.00 0.00 93 1015.5
20260902101924 74 165 0.0 0.0 0.00 0.00 0.00 94 1015.6
20260902101418 73 147 0.0 0.0 0.00 0.00 0.00 95 1015.4
20260902100917 73 149 0.0 0.0 0.00 0.00 0.00 95 1015.4
20260902100412 73 153 0.0 0.0 0.00 0.00 0.00 95 1015.3
20260902095906 73 151 0.0 0.0 0.00 0.00 0.00 95 1015.5
20260902095401 73 158 0.0 0.0 0.00 0.00 0.00 94 1015.6
20260902094901 73 158 0.0 0.0 0.00 0.00 0.00 94 1015.4
20260902094357 73 147 0.0 0.0 0.00 0.00 0.00 94 1015.4
20260902093856 73 150 0.0 0.0 0.00 0.00 0.00 94 1015.4
20260902093351 73 153 0.0 0.0 0.00 0.00 0.00 95 1015.2
20260902092850 73 153 0.0 0.0 0.00 0.00 0.00 95 1015.3
20260902092341 73 153 0.0 0.0 0.00 0.00 0.00 94 1015.0
20260902091841 74 153 0.0 0.0 0.00 0.00 0.00 94 1015.1
20260902091336 74 153 0.0 0.0 0.00 0.00 0.00 93 1015.2
20260902090833 75 149 0.0 0.0 0.00 0.00 0.00 92 1015.2
20260902090332 75 159 0.0 0.0 0.00 0.00 0.00 91 1015.4
20260902085831 75 159 0.0 0.0 0.00 0.00 0.00 91 1015.1
20260902085327 75 167 0.0 0.0 0.00 0.00 0.00 91 1015.0
20260902084822 75 159 0.0 0.0 0.00 0.00 0.00 91 1015.2
20260902084319 76 150 0.0 0.0 0.00 0.00 0.00 91 1015.0
20260902083813 76 158 0.0 0.0 0.00 0.00 0.00 91 1015.0
20260902083308 76 172 0.0 0.0 0.00 0.00 0.00 90 1015.2
20260902082803 76 148 0.0 0.0 0.00 0.00 0.00 90 1015.0
20260902082259 76 151 0.0 0.0 0.00 0.00 0.00 90 1015.0
20260902081755 75 152 0.0 0.0 0.00 0.00 0.00 91 1014.9
20260902081251 75 159 0.0 0.0 0.00 0.00 0.00 91 1015.3
20260902080745 75 159 0.0 0.0 0.00 0.00 0.00 91 1015.0
20260902080243 75 153 0.0 0.0 0.00 0.00 0.00 91 1015.0
20260902075741 75 157 0.0 0.0 0.00 0.00 0.00 91 1014.8
20260902075237 75 159 0.0 0.0 0.00 0.00 0.00 91 1014.9
20260902074732 75 160 0.0 0.0 0.00 0.00 0.00 92 1015.0
20260902074228 75 160 0.0 0.0 0.00 0.00 0.00 92 1015.0
20260902073723 75 161 0.0 0.0 0.00 0.00 0.00 93 1015.0
20260902073219 74 160 0.0 0.0 0.00 0.00 0.00 93 1015.0
20260902072715 74 155 0.0 0.0 0.00 0.00 0.00 94 1015.0
20260902072211 75 155 0.0 0.0 0.00 0.00 0.00 94 1014.8
20260902071706 75 155 0.0 0.0 0.00 0.00 0.00 94 1014.9
20260902071201 75 155 0.0 0.0 0.00 0.00 0.00 93 1014.7
20260902070658 75 155 0.0 0.0 0.00 0.00 0.00 94 1014.7
20260902070157 75 155 0.0 0.0 0.00 0.00 0.00 94 1015.0
20260902065655 75 155 0.0 0.0 0.00 0.00 0.00 94 1015.0
20260902065152 75 155 0.0 0.0 0.00 0.00 0.00 94 1014.9
20260902064647 75 155 0.0 0.0 0.00 0.00 0.00 95 1015.1
20260902064143 75 156 0.0 0.0 0.00 0.00 0.00 96 1015.1
20260902063638 75 155 0.0 0.0 0.00 0.00 0.00 96 1015.0
20260902063133 75 155 0.0 0.0 0.00 0.00 0.00 96 1015.0
20260902062632 75 155 0.0 0.0 0.00 0.00 0.00 96 1015.2
20260902062127 75 155 0.0 0.0 0.00 0.00 0.00 96 1015.2
20260902061626 75 155 0.0 0.0 0.00 0.00 0.00 95 1015.0
20260902061122 75 155 0.0 0.0 0.00 0.00 0.00 95 1015.0
20260902060619 75 156 0.0 0.0 0.00 0.00 0.00 95 1015.0
20260902060115 75 156 0.0 0.0 0.00 0.00 0.00 95 1015.3
20260902055610 75 156 0.0 0.0 0.00 0.00 0.00 95 1015.2
20260902055105 75 155 0.0 0.0 0.00 0.00 0.00 95 1015.2
20260902054600 75 155 0.0 0.0 0.00 0.00 0.00 95 1015.2
20260902054056 75 155 0.0 0.0 0.00 0.00 0.00 95 1015.3
20260902053551 75 155 0.0 0.0 0.00 0.00 0.00 95 1015.1
20260902053051 76 155 0.0 0.0 0.00 0.00 0.00 95 1015.1
20260902052545 76 155 0.0 0.0 0.00 0.00 0.00 95 1015.1
20260902052041 76 155 0.0 0.0 0.00 0.00 0.00 94 1015.1
20260902051540 76 155 0.0 0.0 0.00 0.00 0.00 94 1015.3
20260902051039 76 156 0.0 0.0 0.00 0.00 0.00 94 1015.2
20260902050534 76 156 0.0 0.0 0.00 0.00 0.00 94 1015.3
20260902050030 76 156 0.0 0.0 0.00 0.00 0.00 94 1015.2
20260902045525 76 156 0.0 0.0 0.00 0.00 0.00 94 1014.9
20260902045022 77 156 0.0 0.0 0.00 0.00 0.00 94 1015.1
20260902044516 77 156 0.0 0.0 0.00 0.00 0.00 94 1015.0
20260902044012 76 156 0.0 0.0 0.00 0.00 0.00 95 1015.1
20260902043507 77 156 0.0 0.0 0.00 0.00 0.00 95 1015.0
20260902043006 77 156 0.0 0.0 0.00 0.00 0.00 95 1015.0
20260902042501 76 156 0.0 0.0 0.00 0.00 0.00 95 1015.3
20260902041956 76 159 0.0 0.0 0.00 0.00 0.00 96 1015.1
20260902041451 76 159 0.0 0.0 0.00 0.00 0.00 96 1015.1
20260902040950 76 159 0.0 0.0 0.00 0.00 0.00 97 1015.1
20260902040444 76 159 0.0 0.0 0.00 0.00 0.00 96 1015.2
20260902035943 76 159 0.0 0.0 0.00 0.00 0.00 97 1015.2
20260902035438 76 160 0.0 0.0 0.00 0.00 0.00 96 1015.1
20260902034933 76 153 0.0 0.0 0.00 0.00 0.00 96 1015.2
20260902034428 77 153 0.0 0.0 0.00 0.00 0.00 96 1015.4
20260902033927 77 154 0.0 0.0 0.00 0.00 0.00 95 1015.1
20260902033426 77 153 0.0 0.0 0.00 0.00 0.00 95 1015.1
20260902032925 77 153 0.0 0.0 0.00 0.00 0.00 95 1015.2
20260902032420 77 153 0.0 0.0 0.00 0.00 0.00 95 1015.1
20260902031915 78 153 0.0 0.0 0.00 0.00 0.00 95 1015.1
20260902031411 78 153 0.0 0.0 0.00 0.00 0.00 95 1014.9
20260902030907 78 153 0.0 0.0 0.00 0.00 0.00 95 1015.1
20260902030401 78 153 0.0 0.0 0.00 0.00 0.00 94 1015.1
20260902025900 78 153 0.0 0.0 0.00 0.00 0.00 94 1015.1
20260902025355 78 153 0.0 0.0 0.00 0.00 0.00 94 1015.2
20260902024850 79 153 0.0 0.0 0.00 0.00 0.00 94 1015.3
20260902024346 79 153 0.0 0.0 0.00 0.00 0.00 94 1015.0
20260902023841 79 153 0.0 0.0 0.00 0.00 0.00 94 1015.1
20260902023336 79 153 0.0 0.0 0.00 0.00 0.00 93 1015.3
20260902022835 79 153 0.0 0.0 0.00 0.00 0.00 93 1015.2
20260902022331 79 153 0.0 0.0 0.00 0.00 0.00 93 1015.2
20260902021826 79 153 0.0 0.0 0.00 0.00 0.00 93 1015.1
20260902021321 80 153 0.0 0.0 0.00 0.00 0.00 93 1015.1
20260902020817 80 153 0.0 0.0 0.00 0.00 0.00 92 1015.2
20260902020313 80 153 0.0 0.0 0.00 0.00 0.00 92 1015.1
20260902015808 80 153 0.0 0.0 0.00 0.00 0.00 92 1015.1
20260902015306 80 153 0.0 0.0 0.00 0.00 0.00 92 1015.1
20260902014800 80 153 0.0 0.0 0.00 0.00 0.00 92 1015.0
20260902014256 80 153 0.0 0.0 0.00 0.00 0.00 92 1015.0
20260902013755 80 153 0.0 0.0 0.00 0.00 0.00 92 1015.0
20260902013250 80 153 0.0 0.0 0.00 0.00 0.00 92 1014.9
20260902012745 80 153 0.0 0.0 0.00 0.00 0.00 92 1014.9
20260902012241 80 153 0.0 0.0 0.00 0.00 0.00 92 1014.8
20260902011737 81 153 0.0 0.0 0.00 0.00 0.00 91 1014.9
20260902011236 81 153 0.0 0.0 0.00 0.00 0.00 90 1014.7
20260902010736 82 153 0.0 0.0 0.00 0.00 0.00 90 1014.6
20260902010232 82 153 0.0 0.0 0.00 0.00 0.00 89 1014.6
20260902005730 82 153 0.0 0.0 0.00 0.00 0.00 89 1014.4
20260902005225 82 153 0.0 0.0 0.00 0.00 0.00 88 1014.5
20260902004725 82 153 0.0 0.0 0.00 0.00 0.00 88 1014.4
20260902004220 82 153 0.0 0.0 0.00 0.00 0.00 89 1014.5
20260902003710 83 153 0.0 0.0 0.00 0.00 0.00 88 1014.4
20260902003205 83 153 0.0 0.0 0.00 0.00 0.00 87 1014.4
20260902002700 84 153 0.0 0.0 0.00 0.00 0.00 85 1014.7
20260902002155 84 153 0.0 0.0 0.00 0.00 0.00 85 1014.5
20260902001650 85 153 0.0 0.0 0.00 0.00 0.00 84 1014.5
20260902001149 86 153 0.0 0.0 0.00 0.00 0.00 83 1014.4
20260902000645 86 153 0.0 0.0 0.00 0.00 0.00 81 1014.5
20260902000140 86 153 0.0 0.0 0.00 0.00 0.00 80 1014.3
20260901235640 87 153 0.0 0.0 0.00 0.00 0.00 81 1014.5
20260901235135 88 159 0.0 0.0 0.00 0.00 0.00 78 1014.6
20260901234634 89 159 0.0 0.0 0.00 0.00 0.00 75 1014.4
20260901234130 89 171 0.0 0.0 0.00 0.00 0.00 76 1014.6
20260901233624 89 205 0.0 0.0 0.00 0.00 0.00 75 1014.7
20260901233121 89 178 0.0 0.0 0.00 0.00 0.00 76 1014.6
20260901232620 89 194 0.0 0.0 0.00 0.00 0.00 74 1014.7
20260901232115 89 190 0.0 0.0 0.00 0.00 0.00 74 1014.7
20260901231613 89 225 0.0 0.0 0.00 0.00 0.00 74 1014.7
20260901231108 89 199 0.0 0.0 0.00 0.00 0.00 75 1014.6
20260901230604 89 246 0.0 0.0 0.00 0.00 0.00 75 1014.8
20260901230104 90 212 0.0 0.0 0.00 0.00 0.00 74 1014.8
20260901225559 90 196 0.0 0.0 0.00 0.00 0.00 74 1014.7
20260901225058 91 206 0.0 0.0 0.00 0.00 0.00 71 1014.9
20260901224554 91 248 0.0 0.0 0.00 0.00 0.00 69 1014.6
20260901224050 91 223 0.0 0.0 0.00 0.00 0.00 71 1014.7
20260901223546 91 236 0.0 0.0 0.00 0.00 0.00 71 1014.6
20260901223041 91 181 0.0 0.0 0.00 0.00 0.00 70 1014.6
20260901222537 92 195 0.0 0.0 0.00 0.00 0.00 69 1014.5
20260901222033 92 209 0.0 0.0 0.00 0.00 0.00 66 1014.7
20260901221529 93 236 0.0 0.0 0.00 0.00 0.00 67 1014.5
20260901221024 92 210 0.0 0.0 0.00 0.00 0.00 67 1014.5
20260901220524 92 201 0.0 0.0 0.00 0.00 0.00 69 1014.6
20260901220022 92 242 0.0 0.0 0.00 0.00 0.00 68 1014.6
20260901215521 92 194 0.0 1.0 0.00 0.00 0.00 68 1014.6
20260901215021 93 172 0.0 0.0 0.00 0.00 0.00 69 1014.5
20260901214520 92 165 0.0 0.0 0.00 0.00 0.00 67 1014.5
20260901214014 92 259 0.0 0.0 0.00 0.00 0.00 68 1014.7
20260901213514 92 171 0.0 0.0 0.00 0.00 0.00 70 1014.5
20260901213008 92 241 0.0 0.0 0.00 0.00 0.00 68 1014.5
20260901212503 92 266 0.0 2.0 0.00 0.00 0.00 69 1014.5
20260901212000 92 179 0.0 0.0 0.00 0.00 0.00 68 1014.5
20260901211455 92 173 0.0 0.0 0.00 0.00 0.00 66 1014.6
20260901210950 92 180 0.0 0.0 0.00 0.00 0.00 66 1014.5
20260901210440 92 164 0.0 0.0 0.00 0.00 0.00 68 1014.4
20260901205937 93 196 0.0 0.0 0.00 0.00 0.00 67 1014.6
20260901205436 92 234 0.0 0.0 0.00 0.00 0.00 68 1014.5
20260901204931 93 252 0.0 0.0 0.00 0.00 0.00 67 1014.5
20260901204428 92 157 0.0 0.0 0.00 0.00 0.00 70 1014.6
20260901203928 91 283 1.0 2.0 0.00 0.00 0.00 69 1014.6
20260901203423 92 268 1.0 2.0 0.00 0.00 0.00 68 1014.3
20260901202918 91 248 1.0 2.0 0.00 0.00 0.00 68 1014.6
20260901202414 92 226 0.0 0.0 0.00 0.00 0.00 69 1014.8
20260901201909 92 189 0.0 0.0 0.00 0.00 0.00 66 1014.8
20260901201408 92 245 2.0 2.0 0.00 0.00 0.00 67 1014.8
20260901200902 92 157 0.0 0.0 0.00 0.00 0.00 65 1015.0
20260901200358 92 205 1.0 2.0 0.00 0.00 0.00 65 1014.8
20260901195856 93 271 0.0 0.0 0.00 0.00 0.00 65 1015.0
20260901195349 93 231 0.0 0.0 0.00 0.00 0.00 66 1014.7
20260901194844 92 165 0.0 0.0 0.00 0.00 0.00 64 1014.8
20260901194338 92 197 0.0 0.0 0.00 0.00 0.00 67 1014.6
20260901193836 93 164 0.0 0.0 0.00 0.00 0.00 66 1014.8
20260901193334 93 222 0.0 0.0 0.00 0.00 0.00 66 1014.7
20260901192829 93 247 0.0 0.0 0.00 0.00 0.00 66 1014.8
20260901192324 93 192 0.0 0.0 0.00 0.00 0.00 64 1015.0
20260901191821 93 248 0.0 0.0 0.00 0.00 0.00 66 1015.0
20260901191315 92 165 0.0 0.0 0.00 0.00 0.00 70 1015.0
20260901190812 93 209 0.0 0.0 0.00 0.00 0.00 67 1014.9
20260901190306 93 270 0.0 0.0 0.00 0.00 0.00 67 1014.9
20260901185804 93 138 0.0 0.0 0.00 0.00 0.00 65 1014.9
20260901185306 93 163 0.0 0.0 0.00 0.00 0.00 68 1015.0
20260901184759 92 168 0.0 0.0 0.00 0.00 0.00 66 1015.2
20260901184254 92 238 0.0 0.0 0.00 0.00 0.00 66 1015.1
20260901183750 92 269 1.0 2.0 0.00 0.00 0.00 66 1014.9
20260901183249 91 181 0.0 0.0 0.00 0.00 0.00 69 1014.9
20260901182745 92 231 0.0 0.0 0.00 0.00 0.00 71 1015.0
20260901182244 91 177 0.0 0.0 0.00 0.00 0.00 68 1015.1
20260901181739 92 205 0.0 0.0 0.00 0.00 0.00 66 1015.0
20260901181234 92 151 0.0 0.0 0.00 0.00 0.00 67 1015.1
20260901180733 93 207 0.0 0.0 0.00 0.00 0.00 68 1015.1
20260901180232 93 158 0.0 0.0 0.00 0.00 0.00 69 1015.3
20260901175731 92 179 0.0 0.0 0.00 0.00 0.00 69 1015.1
20260901175226 92 240 0.0 0.0 0.00 0.00 0.00 65 1015.1
20260901174721 92 267 0.0 0.0 0.00 0.00 0.00 67 1015.2
20260901174218 92 164 0.0 0.0 0.00 0.00 0.00 69 1015.0
20260901173713 91 161 0.0 0.0 0.00 0.00 0.00 67 1015.3
20260901173208 91 134 0.0 0.0 0.00 0.00 0.00 69 1015.3
20260901172704 91 178 0.0 0.0 0.00 0.00 0.00 68 1015.3
20260901172202 91 135 0.0 0.0 0.00 0.00 0.00 66 1015.3
20260901171701 91 255 0.0 0.0 0.00 0.00 0.00 68 1015.3
20260901171155 91 169 0.0 0.0 0.00 0.00 0.00 66 1015.4
20260901170654 91 186 0.0 0.0 0.00 0.00 0.00 67 1015.5
20260901170149 91 198 0.0 0.0 0.00 0.00 0.00 68 1015.3
20260901165648 89 247 0.0 1.0 0.00 0.00 0.00 69 1015.5
20260901165143 90 244 0.0 0.0 0.00 0.00 0.00 67 1015.4
20260901164640 90 145 0.0 0.0 0.00 0.00 0.00 68 1015.7
20260901164134 89 162 0.0 0.0 0.00 0.00 0.00 69 1015.7
20260901163630 89 251 0.0 0.0 0.00 0.00 0.00 70 1015.7
20260901163128 90 163 0.0 0.0 0.00 0.00 0.00 67 1015.8
20260901162624 90 217 0.0 0.0 0.00 0.00 0.00 72 1015.9
20260901162124 90 178 0.0 0.0 0.00 0.00 0.00 72 1015.9
20260901161623 89 185 0.0 0.0 0.00 0.00 0.00 70 1015.8
20260901161122 88 163 0.0 0.0 0.00 0.00 0.00 71 1015.8
20260901160619 88 265 1.0 1.0 0.00 0.00 0.00 70 1015.8
20260901160114 89 265 0.0 0.0 0.00 0.00 0.00 69 1015.8
20260901155613 89 167 0.0 2.0 0.00 0.00 0.00 68 1015.8
20260901155108 88 208 0.0 0.0 0.00 0.00 0.00 71 1015.9
20260901154607 88 239 0.0 0.0 0.00 0.00 0.00 71 1016.0
20260901154057 88 212 0.0 0.0 0.00 0.00 0.00 70 1016.0
20260901153552 87 284 0.0 0.0 0.00 0.00 0.00 71 1016.1
20260901153051 87 245 0.0 0.0 0.00 0.00 0.00 75 1016.2
20260901152547 86 189 0.0 0.0 0.00 0.00 0.00 74 1016.2
20260901152045 86 275 0.0 0.0 0.00 0.00 0.00 72 1016.2
20260901151541 86 204 0.0 0.0 0.00 0.00 0.00 72 1016.2
20260901151041 86 289 1.0 1.0 0.00 0.00 0.00 72 1016.1
20260901150539 86 255 0.0 1.0 0.00 0.00 0.00 71 1015.9
20260901150038 86 244 0.0 0.0 0.00 0.00 0.00 73 1016.0
20260901145536 86 204 0.0 0.0 0.00 0.00 0.00 73 1016.0
20260901145030 86 226 0.0 0.0 0.00 0.00 0.00 73 1016.0
20260901144527 86 160 0.0 0.0 0.00 0.00 0.00 74 1016.0
20260901144021 85 71 0.0 0.0 0.00 0.00 0.00 77 1015.8
20260901143517 84 220 0.0 1.0 0.00 0.00 0.00 76 1015.9
20260901143013 84 255 0.0 0.0 0.00 0.00 0.00 77 1016.0
20260901142508 84 202 0.0 0.0 0.00 0.00 0.00 77 1016.0
20260901142003 84 237 0.0 0.0 0.00 0.00 0.00 77 1015.9
20260901141503 83 258 0.0 0.0 0.00 0.00 0.00 78 1016.1
20260901140958 83 206 0.0 0.0 0.00 0.00 0.00 78 1015.9
20260901140456 83 169 0.0 0.0 0.00 0.00 0.00 80 1016.2
20260901135955 82 206 0.0 0.0 0.00 0.00 0.00 81 1016.1
20260901135450 83 267 0.0 0.0 0.00 0.00 0.00 79 1016.1
20260901134946 82 163 0.0 0.0 0.00 0.00 0.00 80 1016.3
20260901134442 82 163 0.0 0.0 0.00 0.00 0.00 81 1016.5
20260901133936 82 203 0.0 0.0 0.00 0.00 0.00 81 1016.4
20260901133435 82 140 0.0 0.0 0.00 0.00 0.00 82 1016.4
20260901132934 81 150 0.0 0.0 0.00 0.00 0.00 82 1016.3
20260901132429 81 159 0.0 0.0 0.00 0.00 0.00 83 1016.2
20260901131927 81 172 0.0 0.0 0.00 0.00 0.00 82 1016.2
20260901131422 80 160 0.0 0.0 0.00 0.00 0.00 84 1016.3
20260901130918 80 161 0.0 0.0 0.00 0.00 0.00 84 1016.4
20260901130417 79 164 0.0 0.0 0.00 0.00 0.00 85 1016.3
20260901125915 79 181 0.0 0.0 0.00 0.00 0.00 85 1016.2
20260901125414 79 210 0.0 0.0 0.00 0.00 0.00 86 1016.5
20260901124909 78 255 0.0 0.0 0.00 0.00 0.00 87 1016.2
20260901124405 78 166 0.0 0.0 0.00 0.00 0.00 88 1016.4
20260901123859 78 176 0.0 0.0 0.00 0.00 0.00 88 1016.4
20260901123354 77 172 0.0 0.0 0.00 0.00 0.00 88 1016.4
20260901122852 77 162 0.0 0.0 0.00 0.00 0.00 90 1016.1
20260901122347 76 146 0.0 0.0 0.00 0.00 0.00 91 1016.3
20260901121846 75 165 0.0 0.0 0.00 0.00 0.00 92 1016.0
20260901121342 75 156 0.0 0.0 0.00 0.00 0.00 93 1016.2
20260901120837 74 177 0.0 0.0 0.00 0.00 0.00 94 1015.9
20260901120331 74 146 0.0 0.0 0.00 0.00 0.00 94 1015.9
20260901115827 73 156 0.0 0.0 0.00 0.00 0.00 95 1015.9
20260901115322 73 162 0.0 0.0 0.00 0.00 0.00 96 1016.0
20260901114819 73 160 0.0 0.0 0.00 0.00 0.00 96 1016.0
20260901114314 73 160 0.0 0.0 0.00 0.00 0.00 96 1015.8
20260901113812 73 162 0.0 0.0 0.00 0.00 0.00 96 1015.8
20260901113307 73 159 0.0 0.0 0.00 0.00 0.00 96 1015.8
20260901112802 73 159 0.0 0.0 0.00 0.00 0.00 96 1015.8
20260901112305 73 157 0.0 0.0 0.00 0.00 0.00 96 1015.6
20260901111757 73 157 0.0 0.0 0.00 0.00 0.00 96 1016.0
20260901111255 73 157 0.0 0.0 0.00 0.00 0.00 96 1015.6
20260901110754 73 157 0.0 0.0 0.00 0.00 0.00 95 1015.6